Content
SEND FEEDBACK

Daily
Averages
Monthly
Summary
United States of America

WINSTON-SALEM - AIRPORT, NORTH CAROLINA


Home > North America > United States > North Carolina
Elevation: 30 meters     Latitude: 36 08N     Longitude: 080 14W

WEATHER
 
SELECT A DAY
Number of Records: 186,583;   Date Range: 1/1/95 - 8/12/14
 
SHARE

PRINT THIS DATA

[ ← Previous Day ]
WEATHER ALMANAC - 23 JANUARY, 2013
[ Next Day → ]
[ °F ]   °C
Weather ElementAverageHighLow
Temperature-0.6 °C5 °C (2:54 pm)-7.2 °C (6:54 am)
Dewpoint-12.4 °C-8.3 °C (11:54 pm)-17.2 °C (1:54 am)
Humidity42.4 %65 % (7:54 am)31 % (9:54 am)
Barometer1023.7 hPa1028.1 hPa (9:54 am)1017.3 hPa (11:54 pm)
Wind Speed5.3 km/h14.8 km/h (12:54 pm)
Wind Gust25.9 km/h (12:54 pm)
Weather ElementAverage
Visibility16.1 km
Wind DirectionENE (77.8 °)

Weather ElementTotal
Precipitation---
Heating Degree Days19.4 (Base 18.3)
Averaged from 23 records on 23 January, 2013
WEATHER CONDITIONS BREAKOUT
WIND DIRECTION BREAKOUT
WEATHER BY HOUR - 23 JANUARY, 2013
[ °F ]   °C
Local TimeTemperatureDewpointHumidityBarometerVisibilityWind DirectionWind SpeedGust SpeedPrecipitationEventsConditions
1:54 AM-5 °C-17.2 °C39 %1025.4 hPa16.1 kmNNE (30°)5.6 km/hPartly Cloudy
2:54 AM-5.6 °C-16.1 °C44 %1026.1 hPa16.1 kmCalmClear
3:54 AM-6.1 °C-15 °C50 %1026.1 hPa16.1 kmCalmMostly Cloudy
4:54 AM-6.1 °C-13.9 °C55 %1026.1 hPa16.1 kmCalmMostly Cloudy
5:54 AM-6.7 °C-13.9 °C57 %1026.8 hPa16.1 kmCalmClear
6:54 AM-7.2 °C-13.3 °C62 %1027.1 hPa16.1 kmCalmPartly Cloudy
7:54 AM-7.2 °C-12.8 °C65 %1027.4 hPa16.1 kmCalmClear
8:54 AM-3.9 °C-14.4 °C45 %1027.8 hPa16.1 kmSE (140°)5.6 km/hClear
9:54 AM-2.2 °C-17.2 °C31 %1028.1 hPa16.1 kmVariable5.6 km/hClear
10:54 AM-0.6 °C-16.1 °C31 %1027.8 hPa16.1 kmSouth (170°)7.4 km/hPartly Cloudy
11:54 AM1.1 °C-13.9 °C32 %1026.4 hPa16.1 kmVariable5.6 km/hPartly Cloudy
12:54 PM2.8 °C-11.7 °C34 %1024.4 hPa16.1 kmWest (270°)14.8 km/h25.9 km/hClear
1:54 PM4.4 °C-11.1 °C32 %1023 hPa16.1 kmSW (230°)11.1 km/hOvercast
2:54 PM5 °C-11.1 °C31 %1022.4 hPa16.1 kmVariable11.1 km/hMostly Cloudy
3:54 PM5 °C-10 °C33 %1022.4 hPa16.1 kmVariable11.1 km/hClear
4:54 PM4.4 °C-10.6 °C33 %1022 hPa16.1 kmSW (220°)13 km/hClear
5:54 PM3.9 °C-10.6 °C34 %1021.7 hPa16.1 kmSouth (180°)9.3 km/hClear
6:54 PM2.8 °C-10 °C39 %1021.3 hPa16.1 kmSouth (180°)7.4 km/hClear
7:54 PM2.8 °C-10 °C39 %1020.7 hPa16.1 kmSouth (190°)5.6 km/hClear
8:54 PM1.7 °C-9.4 °C44 %1020 hPa16.1 kmSouth (180°)7.4 km/hClear
9:54 PM1.7 °C-8.9 °C46 %1019.3 hPa16.1 kmCalmClear
10:54 PM1.1 °C-8.9 °C48 %1018.3 hPa16.1 kmCalmClear
11:54 PM0.6 °C-8.3 °C52 %1017.3 hPa16.1 kmCalmClear
Hourly data recorded from KINT, located 0 kilometers away from Winston-Salem - Airport, North Carolina







STORIES FROM OUR PARTNERS